Flag Weather past 2 weeks in Plzen, Czech Republic

Now
48 °F

Passing clouds.


Feels Like: N/A
Forecast: 42 / 54 °F
Wind: N/A

Location: Kocelovice

Current Time: Oct 30, 2014 at 1:37:43 PM

Latest Report: Oct 30, 2014 at 1:00 PM


Visibility: 6 mi

Pressure: 30.28 "Hg

Humidity: 70%

Dew point: 38 °F

Location of PlzenLocation

Historic Weather in Plzen — Graph

°F

Plzen temperature yesterday

Maximum temperature yesterday: 43 °F (at 2:00 PM)
Minimum temperature yesterday: 36 °F (at 4:00 AM)
Average temperature yesterday: 39 °F

Past Weeks' High & Low Weather Summary

 TemperatureHumidityPressure
High63 °F (Oct 16, 3:00 PM)100% (Oct 16, 6:00 AM)30.45 "Hg (Oct 16, 6:00 AM)
Low33 °F (Oct 25, 4:00 AM)55% (Oct 28, 3:00 PM)29.58 "Hg (Oct 21, 10:00 PM)
Average47 °F88%30.11 "Hg
* Reported Oct 15 1:00 PM — Oct 30 12:00 Noon, Plzen, Weather by CustomWeather, © 2014

Note: Actual official high and low records may vary slightly from our data, if they occured in-between our weather recording intervals... More about our weather records

Advertising

Plzen weather history for previous 24 hours

 ConditionsComfort  
Time TempWeatherWind HumidityBarometerVisibility
12:00 PM
Oct 30
46 °FFog.N/A73%30.29 "Hg6 mi
11:00 AM45 °FFog.3 mph74%30.29 "Hg5 mi
10:00 AM46 °FFog.3 mph75%30.28 "Hg5 mi
9:00 AM43 °FFog.N/A89%30.27 "Hg2 mi
8:00 AM41 °FFog.N/A96%30.27 "Hg2 mi
7:00 AM40 °FFog.1 mph96%30.26 "Hg2 mi
6:00 AM40 °FFog.N/A97%30.24 "Hg2 mi
5:00 AM40 °FFog.N/A96%30.23 "Hg2 mi
3:00 AM40 °FFog.1 mph94%30.22 "Hg2 mi
2:00 AM40 °FFog.1 mph93%30.22 "Hg2 mi
1:00 AM40 °FFog.N/A93%30.21 "Hg2 mi
12:00 AM40 °FFog.2 mph95%30.20 "Hg2 mi
11:00 PM
Oct 29
40 °FFog.N/A94%30.19 "Hg2 mi
10:00 PM40 °FFog.1 mph93%30.19 "Hg2 mi
9:00 PM40 °FFog.1 mph91%30.18 "Hg3 mi
8:00 PM40 °FFog.1 mph90%30.16 "Hg3 mi
7:00 PM40 °FFog.2 mph89%30.16 "Hg4 mi
6:00 PM41 °FFog.2 mph90%30.15 "Hg4 mi
5:00 PM41 °FFog.3 mph88%30.14 "Hg4 mi
4:00 PM42 °FFog.3 mph87%30.12 "Hg4 mi
3:00 PM43 °FFog.5 mph84%30.12 "Hg4 mi
2:00 PM43 °FFog.5 mph84%30.12 "Hg4 mi
1:00 PM43 °FFog.3 mph83%30.13 "Hg4 mi
Weather by CustomWeather, © 2014

See weather overviewHow to use our weather pages